TITAN 3C TRANSTAGE DEB, 43515

Orbit data source: Space-Track

TITAN 3C TRANSTAGE DEB, 43515 is space debris in GEO originally from a launch on Sun, 09 Feb 1969 UTC launched from the Air Force Eastern Test Range (AFETR). Debris objects in space refer to the collection of defunct objects orbiting the Earth. Examples of debris include non-operational satellites, rocket bodies, and fragments generated from explosions, collisions, or faulty payload assembly.

Not visible in the next 10 days
Identifier
43515, 1969-013T
Orbit
GEO
Last TLE update
2 days ago
Origin
Manufacturer
Martin Marietta
Mission
Spacecraft
Bus & Motor
Unknown
Mass
Unknown
Launch date (UTC)
1969-02-09 (56 years ago)
Launch vehicle
Unknown
Launch site
Air Force Eastern Test Range (AFETR)
Object type
Payload
Rocket body
Debris
Shape & HBR
Unknown
Radar Cross Section
RCS unknown

Expand to show TLE details & history

TLE from 2 days ago
0 TITAN 3C TRANSTAGE DEB
1 43515U 69013T   25190.78635400 -.00000139  00000-0  00000+0 0  9990
2 43515   1.0510  41.6971 0317385 157.2218 203.8352  0.95445076 24940
Epoch: 2025-07-09T18:52Z
TLE epoch observation values (Epoch: 2025-07-09T18:52:20.985Z)
Latitude
0.00002°
Longitude
-169.70061°
Altitude
38,461.064 km
Speed
2.938 km/s
True Right ascension
02h 45m 23s
True Declination
0° 00' 00"
Sunlit
Object was in daylight at epoch
Visualization orbit readout
Latitude
-0.35861°
Longitude
29.8431°
Altitude
36,154.058 km
Speed
3.098 km/s
Apparent Right ascension
15h 37m 14s
Apparent Declination
-5° 47' 48"
Sunlit
Object is in daylight
Visualization observer readout
Local Sidereal Time
21:59:11
Azimuth
269.052° W
Elevation
-7.921°
Doppler factor
1
Orbital elements
Apogee altitude
38,580.466 km
Perigee altitude
35,814.419 km
Semi-major axis
43,575.58 km
Eccentricity
0.03174
Inclination
1.051°
RAAN
41.6971°
Arg. of periapsis
157.2218°
True anomaly
Unknown
Mean anomaly
203.8352°
Eccentric anomaly
Unknown
Mean motion
0.2386 °/min
Orbital period
1,508.77 mins
BSTAR
0
Loading historical data...
43515 neighbors
Loading maneuver chart data...
Loading SW <> Apogee altitude chart data...

TITAN 3C TRANSTAGE DEB Visibility

Observer location: undefined°, undefined°

TITAN 3C TRANSTAGE DEB is likely not visible in the next few days
Span
Click to sort rows by Start time (UTC) header in descending order
Start Az.
Max El. time (UTC)
Max El. Az.
Max El.
End time (UTC)
End Az.
|